| time (UTC) | temp F | wind direction | speed MPH | gust MPH | rain 1hr in | rain 24hr in | rain mn in | humidity % | barometer mb |
| 20260505083220 | 56 | 168 | 4.0 | 6.0 | 0.00 | 0.00 | 0.00 | 66 | 1009.0 |
| 20260505082721 | 56 | 138 | 4.0 | 6.0 | 0.00 | 0.00 | 0.00 | 66 | 1009.0 |
| 20260505082220 | 56 | 157 | 3.0 | 4.0 | 0.00 | 0.00 | 0.00 | 66 | 1009.0 |
| 20260505081726 | 56 | 148 | 4.0 | 7.0 | 0.00 | 0.00 | 0.00 | 66 | 1009.0 |
| 20260505081220 | 56 | 145 | 3.0 | 5.0 | 0.00 | 0.00 | 0.00 | 65 | 1009.0 |
| 20260505080721 | 56 | 158 | 6.0 | 9.0 | 0.00 | 0.00 | 0.00 | 65 | 1009.0 |
| 20260505080222 | 56 | 140 | 5.0 | 9.0 | 0.00 | 0.00 | 0.00 | 65 | 1009.0 |
| 20260505075721 | 56 | 163 | 5.0 | 8.0 | 0.00 | 0.00 | 0.00 | 65 | 1009.0 |
| 20260505075222 | 56 | 154 | 5.0 | 7.0 | 0.00 | 0.00 | 0.00 | 65 | 1009.0 |
| 20260505074722 | 56 | 169 | 3.0 | 5.0 | 0.00 | 0.00 | 0.00 | 63 | 1010.0 |
| 20260505074220 | 56 | 182 | 5.0 | 7.0 | 0.00 | 0.00 | 0.00 | 62 | 1009.0 |
| 20260505073722 | 56 | 166 | 4.0 | 6.0 | 0.00 | 0.00 | 0.00 | 62 | 1009.0 |
| 20260505073220 | 56 | 185 | 9.0 | 11.0 | 0.00 | 0.00 | 0.00 | 60 | 1009.0 |
| 20260505072720 | 56 | 175 | 4.0 | 8.0 | 0.00 | 0.00 | 0.00 | 59 | 1010.0 |
| 20260505072221 | 56 | 170 | 6.0 | 8.0 | 0.00 | 0.00 | 0.00 | 57 | 1010.0 |
| 20260505071720 | 56 | 180 | 8.0 | 11.0 | 0.00 | 0.00 | 0.00 | 58 | 1010.0 |
| 20260505071221 | 57 | 163 | 7.0 | 9.0 | 0.00 | 0.00 | 0.00 | 59 | 1010.0 |
| 20260505070720 | 57 | 155 | 8.0 | 10.0 | 0.00 | 0.00 | 0.00 | 59 | 1010.0 |
| 20260505070221 | 57 | 166 | 7.0 | 11.0 | 0.00 | 0.00 | 0.00 | 55 | 1009.0 |
| 20260505065720 | 57 | 158 | 9.0 | 11.0 | 0.00 | 0.00 | 0.00 | 54 | 1009.0 |
| 20260505065221 | 57 | 154 | 8.0 | 11.0 | 0.00 | 0.00 | 0.00 | 54 | 1010.0 |
| 20260505064720 | 57 | 172 | 8.0 | 11.0 | 0.00 | 0.00 | 0.00 | 55 | 1010.0 |
| 20260505064220 | 56 | 179 | 7.0 | 12.0 | 0.00 | 0.00 | 0.00 | 55 | 1010.0 |
| 20260505063721 | 56 | 155 | 9.0 | 13.0 | 0.00 | 0.00 | 0.00 | 57 | 1010.0 |
| 20260505063221 | 56 | 143 | 3.0 | 6.0 | 0.00 | 0.00 | 0.00 | 57 | 1010.0 |
| 20260505062720 | 56 | 144 | 4.0 | 7.0 | 0.00 | 0.00 | 0.00 | 57 | 1010.0 |
| 20260505062222 | 56 | 157 | 5.0 | 7.0 | 0.00 | 0.00 | 0.00 | 57 | 1010.0 |
| 20260505061720 | 56 | 174 | 7.0 | 13.0 | 0.00 | 0.00 | 0.00 | 57 | 1010.0 |
| 20260505061220 | 56 | 179 | 10.0 | 13.0 | 0.00 | 0.00 | 0.00 | 57 | 1010.0 |
| 20260505060720 | 56 | 191 | 7.0 | 12.0 | 0.00 | 0.00 | 0.00 | 58 | 1010.0 |
| 20260505060220 | 56 | 160 | 9.0 | 13.0 | 0.00 | 0.00 | 0.00 | 59 | 1010.0 |
| 20260505055722 | 56 | 191 | 8.0 | 11.0 | 0.00 | 0.00 | 0.00 | 59 | 1010.0 |
| 20260505055222 | 56 | 191 | 7.0 | 11.0 | 0.00 | 0.00 | 0.00 | 59 | 1010.0 |
| 20260505054720 | 56 | 183 | 7.0 | 12.0 | 0.00 | 0.00 | 0.00 | 60 | 1010.0 |
| 20260505054220 | 57 | 174 | 9.0 | 13.0 | 0.00 | 0.00 | 0.00 | 61 | 1010.0 |
| 20260505053720 | 57 | 173 | 9.0 | 12.0 | 0.00 | 0.00 | 0.00 | 60 | 1010.0 |
| 20260505053221 | 57 | 169 | 11.0 | 17.0 | 0.00 | 0.00 | 0.00 | 60 | 1010.0 |
| 20260505052721 | 57 | 169 | 8.0 | 13.0 | 0.06 | 0.00 | 0.00 | 61 | 1010.0 |
| 20260505052220 | 57 | 167 | 5.0 | 9.0 | 0.00 | 0.00 | 0.00 | 61 | 1010.0 |
| 20260505051720 | 57 | 134 | 6.0 | 10.0 | 0.00 | 0.00 | 0.00 | 61 | 1010.0 |
| 20260505051221 | 57 | 161 | 5.0 | 9.0 | 0.00 | 0.00 | 0.00 | 60 | 1010.0 |
| 20260505050720 | 58 | 133 | 7.0 | 11.0 | 0.00 | 0.00 | 0.00 | 60 | 1009.0 |
| 20260505050223 | 58 | 139 | 7.0 | 10.0 | 0.02 | 0.00 | 0.00 | 61 | 1009.0 |
| 20260505041720 | 62 | 177 | 7.0 | 13.0 | 0.00 | 0.00 | 0.00 | 44 | 1009.0 |
| 20260505041221 | 62 | 167 | 5.0 | 9.0 | 0.00 | 0.00 | 0.00 | 42 | 1009.0 |
| 20260505040720 | 62 | 156 | 6.0 | 8.0 | 0.00 | 0.00 | 0.00 | 42 | 1009.0 |
| 20260505040220 | 63 | 166 | 5.0 | 7.0 | 0.00 | 0.00 | 0.00 | 41 | 1008.0 |
| 20260505035720 | 63 | 199 | 7.0 | 9.0 | 0.00 | 0.00 | 0.00 | 40 | 1008.0 |
| 20260505035221 | 62 | 191 | 8.0 | 12.0 | 0.00 | 0.00 | 0.00 | 41 | 1008.0 |
| 20260505034720 | 62 | 191 | 8.0 | 11.0 | 0.00 | 0.00 | 0.00 | 41 | 1008.0 |
| 20260505034221 | 62 | 191 | 8.0 | 10.0 | 0.00 | 0.00 | 0.00 | 41 | 1008.0 |
| 20260505033720 | 62 | 176 | 6.0 | 11.0 | 0.00 | 0.00 | 0.00 | 42 | 1008.0 |
| 20260505033220 | 62 | 181 | 6.0 | 8.0 | 0.00 | 0.00 | 0.00 | 44 | 1008.0 |
| 20260505032721 | 63 | 185 | 6.0 | 10.0 | 0.00 | 0.00 | 0.00 | 45 | 1008.0 |
| 20260505032220 | 63 | 189 | 6.0 | 9.0 | 0.00 | 0.00 | 0.00 | 45 | 1008.0 |
| 20260505031720 | 63 | 183 | 7.0 | 12.0 | 0.00 | 0.00 | 0.00 | 46 | 1008.0 |
| 20260505031220 | 64 | 182 | 8.0 | 13.0 | 0.00 | 0.00 | 0.00 | 43 | 1008.0 |
| 20260505030721 | 64 | 185 | 8.0 | 11.0 | 0.00 | 0.00 | 0.00 | 40 | 1008.0 |
| 20260505030220 | 64 | 179 | 9.0 | 10.0 | 0.00 | 0.00 | 0.00 | 41 | 1008.0 |
| 20260505025720 | 64 | 169 | 7.0 | 12.0 | 0.00 | 0.00 | 0.00 | 41 | 1008.0 |
| 20260505025222 | 64 | 171 | 7.0 | 10.0 | 0.00 | 0.00 | 0.00 | 41 | 1008.0 |
| 20260505024720 | 64 | 175 | 6.0 | 11.0 | 0.00 | 0.00 | 0.00 | 42 | 1007.0 |
| 20260505024220 | 64 | 170 | 8.0 | 13.0 | 0.00 | 0.00 | 0.00 | 41 | 1007.0 |
| 20260505023720 | 64 | 176 | 6.0 | 10.0 | 0.00 | 0.00 | 0.00 | 41 | 1007.0 |
| 20260505023222 | 65 | 166 | 6.0 | 11.0 | 0.00 | 0.00 | 0.00 | 42 | 1007.0 |
| 20260505022724 | 65 | 182 | 8.0 | 11.0 | 0.00 | 0.00 | 0.00 | 42 | 1007.0 |
| 20260505022222 | 65 | 177 | 7.0 | 13.0 | 0.00 | 0.00 | 0.00 | 42 | 1007.0 |
| 20260505021721 | 65 | 181 | 5.0 | 10.0 | 0.00 | 0.00 | 0.00 | 39 | 1007.0 |
| 20260505021221 | 66 | 164 | 7.0 | 9.0 | 0.00 | 0.00 | 0.00 | 37 | 1007.0 |
| 20260505020720 | 66 | 159 | 9.0 | 12.0 | 0.00 | 0.00 | 0.00 | 37 | 1007.0 |
| 20260505020220 | 66 | 172 | 5.0 | 8.0 | 0.00 | 0.00 | 0.00 | 37 | 1007.0 |
| 20260505015721 | 66 | 167 | 8.0 | 13.0 | 0.00 | 0.00 | 0.00 | 36 | 1007.0 |
| 20260505015220 | 66 | 169 | 5.0 | 8.0 | 0.00 | 0.00 | 0.00 | 37 | 1007.0 |
| 20260505014720 | 66 | 158 | 10.0 | 13.0 | 0.00 | 0.00 | 0.00 | 37 | 1007.0 |
| 20260505014220 | 66 | 155 | 8.0 | 11.0 | 0.00 | 0.00 | 0.00 | 37 | 1007.0 |
| 20260505013720 | 66 | 158 | 9.0 | 11.0 | 0.00 | 0.00 | 0.00 | 37 | 1007.0 |
| 20260505013220 | 67 | 166 | 5.0 | 6.0 | 0.00 | 0.00 | 0.00 | 37 | 1007.0 |
| 20260505012720 | 68 | 157 | 9.0 | 11.0 | 0.00 | 0.00 | 0.00 | 36 | 1007.0 |
| 20260505012220 | 69 | 156 | 5.0 | 8.0 | 0.00 | 0.00 | 0.00 | 31 | 1007.0 |
| 20260505011720 | 69 | 217 | 3.0 | 4.0 | 0.00 | 0.00 | 0.00 | 30 | 1007.0 |
| 20260505011220 | 70 | 233 | 1.0 | 2.0 | 0.00 | 0.00 | 0.00 | 29 | 1007.0 |
| 20260505010723 | 70 | 66 | 2.0 | 2.0 | 0.00 | 0.00 | 0.00 | 29 | 1007.0 |
| 20260505010221 | 70 | 0 | 0.0 | 0.0 | 0.00 | 0.00 | 0.00 | 29 | 1007.0 |
| 20260505005725 | 70 | 96 | 2.0 | 2.0 | 0.00 | 0.00 | 0.00 | 30 | 1007.0 |
| 20260505005221 | 70 | 0 | 0.0 | 0.0 | 0.00 | 0.00 | 0.00 | 29 | 1007.0 |
| 20260505004721 | 70 | 0 | 0.0 | 0.0 | 0.00 | 0.00 | 0.00 | 29 | 1007.0 |
| 20260505004220 | 70 | 0 | 0.0 | 0.0 | 0.00 | 0.00 | 0.00 | 30 | 1007.0 |
| 20260505003720 | 69 | 0 | 0.0 | 0.0 | 0.00 | 0.00 | 0.00 | 31 | 1007.0 |
| 20260505003220 | 69 | 0 | 0.0 | 0.0 | 0.00 | 0.00 | 0.00 | 31 | 1007.0 |
| 20260505002720 | 69 | 0 | 0.0 | 0.0 | 0.00 | 0.00 | 0.00 | 30 | 1007.0 |
| 20260505002220 | 69 | 96 | 1.0 | 2.0 | 0.00 | 0.00 | 0.00 | 31 | 1007.0 |
| 20260505001720 | 69 | 142 | 4.0 | 5.0 | 0.00 | 0.00 | 0.00 | 31 | 1007.0 |
| 20260505001220 | 69 | 69 | 3.0 | 4.0 | 0.00 | 0.00 | 0.00 | 33 | 1007.0 |
| 20260505000720 | 68 | 78 | 3.0 | 4.0 | 0.00 | 0.00 | 0.00 | 32 | 1007.0 |
| 20260505000220 | 69 | 37 | 4.0 | 6.0 | 0.00 | 0.00 | 0.00 | 32 | 1007.0 |
| 20260504235720 | 69 | 26 | 0.0 | 1.0 | 0.00 | 0.00 | 0.00 | 31 | 1008.0 |
| 20260504235220 | 69 | 20 | 2.0 | 3.0 | 0.00 | 0.00 | 0.00 | 31 | 1008.0 |
| 20260504234720 | 69 | 10 | 2.0 | 4.0 | 0.00 | 0.00 | 0.00 | 31 | 1007.0 |
| 20260504234220 | 68 | 111 | 0.0 | 2.0 | 0.00 | 0.00 | 0.00 | 30 | 1007.0 |
| 20260504233720 | 68 | 66 | 5.0 | 6.0 | 0.00 | 0.00 | 0.00 | 31 | 1007.0 |
| 20260504233221 | 68 | 56 | 5.0 | 7.0 | 0.00 | 0.00 | 0.00 | 32 | 1008.0 |
| 20260504232720 | 67 | 7 | 5.0 | 8.0 | 0.00 | 0.00 | 0.00 | 34 | 1008.0 |
| 20260504232220 | 67 | 15 | 9.0 | 11.0 | 0.00 | 0.00 | 0.00 | 34 | 1008.0 |
| 20260504231720 | 67 | 14 | 6.0 | 11.0 | 0.00 | 0.00 | 0.00 | 34 | 1008.0 |
| 20260504231220 | 67 | 34 | 3.0 | 4.0 | 0.00 | 0.00 | 0.00 | 34 | 1008.0 |
| 20260504230720 | 67 | 31 | 8.0 | 14.0 | 0.00 | 0.00 | 0.00 | 34 | 1008.0 |
| 20260504230220 | 67 | 40 | 10.0 | 14.0 | 0.00 | 0.00 | 0.00 | 33 | 1008.0 |
| 20260504225720 | 68 | 35 | 8.0 | 10.0 | 0.00 | 0.00 | 0.00 | 34 | 1008.0 |
| 20260504225220 | 69 | 58 | 8.0 | 10.0 | 0.00 | 0.00 | 0.00 | 32 | 1008.0 |
| 20260504224720 | 71 | 70 | 8.0 | 10.0 | 0.00 | 0.00 | 0.00 | 31 | 1008.0 |
| 20260504224221 | 72 | 57 | 3.0 | 4.0 | 0.00 | 0.00 | 0.00 | 29 | 1007.0 |
| 20260504223721 | 72 | 348 | 2.0 | 2.0 | 0.00 | 0.00 | 0.00 | 27 | 1008.0 |
| 20260504223221 | 71 | 328 | 0.0 | 2.0 | 0.00 | 0.00 | 0.00 | 28 | 1007.0 |
| 20260504222720 | 71 | 254 | 3.0 | 6.0 | 0.00 | 0.00 | 0.00 | 28 | 1007.0 |
| 20260504222220 | 70 | 276 | 5.0 | 7.0 | 0.00 | 0.00 | 0.00 | 29 | 1007.0 |
| 20260504221720 | 70 | 303 | 4.0 | 7.0 | 0.00 | 0.00 | 0.00 | 31 | 1007.0 |
| 20260504221221 | 69 | 293 | 5.0 | 8.0 | 0.00 | 0.00 | 0.00 | 32 | 1007.0 |
| 20260504220720 | 69 | 285 | 6.0 | 7.0 | 0.00 | 0.00 | 0.00 | 32 | 1007.0 |
| 20260504220221 | 68 | 278 | 8.0 | 9.0 | 0.00 | 0.00 | 0.00 | 33 | 1008.0 |
| 20260504215721 | 68 | 269 | 9.0 | 11.0 | 0.00 | 0.00 | 0.00 | 34 | 1008.0 |
| 20260504215220 | 67 | 264 | 6.0 | 10.0 | 0.00 | 0.00 | 0.00 | 35 | 1008.0 |
| 20260504214720 | 67 | 279 | 6.0 | 9.0 | 0.00 | 0.00 | 0.00 | 36 | 1008.0 |
| 20260504214220 | 67 | 261 | 9.0 | 12.0 | 0.00 | 0.00 | 0.00 | 36 | 1008.0 |
| 20260504213720 | 67 | 264 | 9.0 | 11.0 | 0.00 | 0.00 | 0.00 | 36 | 1008.0 |
| 20260504213220 | 66 | 254 | 7.0 | 11.0 | 0.00 | 0.00 | 0.00 | 37 | 1008.0 |
| 20260504212720 | 66 | 250 | 10.0 | 14.0 | 0.00 | 0.00 | 0.00 | 38 | 1008.0 |
| 20260504212221 | 65 | 265 | 9.0 | 13.0 | 0.00 | 0.00 | 0.00 | 38 | 1008.0 |
| 20260504211722 | 66 | 262 | 11.0 | 17.0 | 0.00 | 0.00 | 0.00 | 38 | 1008.0 |
| 20260504211220 | 66 | 244 | 10.0 | 16.0 | 0.00 | 0.00 | 0.00 | 37 | 1008.0 |
| 20260504210721 | 67 | 257 | 11.0 | 16.0 | 0.00 | 0.00 | 0.00 | 36 | 1008.0 |
| 20260504210220 | 67 | 242 | 8.0 | 11.0 | 0.00 | 0.00 | 0.00 | 34 | 1008.0 |
| 20260504205721 | 67 | 253 | 10.0 | 12.0 | 0.00 | 0.00 | 0.00 | 33 | 1008.0 |
| 20260504205220 | 67 | 239 | 9.0 | 13.0 | 0.00 | 0.00 | 0.00 | 33 | 1008.0 |
| 20260504204721 | 68 | 245 | 9.0 | 12.0 | 0.00 | 0.00 | 0.00 | 32 | 1008.0 |
| 20260504204220 | 68 | 246 | 8.0 | 12.0 | 0.00 | 0.00 | 0.00 | 33 | 1008.0 |
| 20260504203720 | 68 | 256 | 9.0 | 13.0 | 0.00 | 0.00 | 0.00 | 33 | 1008.0 |
| 20260504203221 | 68 | 242 | 7.0 | 11.0 | 0.00 | 0.00 | 0.00 | 33 | 1008.0 |
| 20260504202721 | 69 | 256 | 10.0 | 13.0 | 0.00 | 0.00 | 0.00 | 33 | 1008.0 |
| 20260504202220 | 70 | 270 | 10.0 | 13.0 | 0.00 | 0.00 | 0.00 | 32 | 1008.0 |
| 20260504201721 | 71 | 222 | 5.0 | 8.0 | 0.00 | 0.00 | 0.00 | 31 | 1008.0 |
| 20260504201220 | 72 | 161 | 4.0 | 6.0 | 0.00 | 0.00 | 0.00 | 27 | 1008.0 |
| 20260504200720 | 73 | 145 | 0.0 | 3.0 | 0.00 | 0.00 | 0.00 | 27 | 1008.0 |
| 20260504200220 | 72 | 341 | 2.0 | 3.0 | 0.00 | 0.00 | 0.00 | 28 | 1008.0 |
| 20260504195722 | 71 | 145 | 0.0 | 0.0 | 0.00 | 0.00 | 0.00 | 28 | 1008.0 |
| 20260504195221 | 71 | 115 | 2.0 | 4.0 | 0.00 | 0.00 | 0.00 | 28 | 1008.0 |
| 20260504194720 | 71 | 145 | 5.0 | 7.0 | 0.00 | 0.00 | 0.00 | 28 | 1008.0 |
| 20260504194221 | 71 | 157 | 2.0 | 3.0 | 0.00 | 0.00 | 0.00 | 27 | 1008.0 |
| 20260504193721 | 71 | 104 | 1.0 | 3.0 | 0.00 | 0.00 | 0.00 | 29 | 1008.0 |
| 20260504193220 | 71 | 119 | 5.0 | 10.0 | 0.00 | 0.00 | 0.00 | 28 | 1008.0 |
| 20260504192725 | 71 | 50 | 4.0 | 6.0 | 0.00 | 0.00 | 0.00 | 28 | 1008.0 |
| 20260504192221 | 71 | 218 | 2.0 | 4.0 | 0.00 | 0.00 | 0.00 | 28 | 1008.0 |
| 20260504191720 | 71 | 158 | 3.0 | 5.0 | 0.00 | 0.00 | 0.00 | 28 | 1008.0 |
| 20260504191220 | 70 | 167 | 6.0 | 9.0 | 0.00 | 0.00 | 0.00 | 29 | 1008.0 |
| 20260504190721 | 70 | 116 | 5.0 | 9.0 | 0.00 | 0.00 | 0.00 | 29 | 1009.0 |
| 20260504190221 | 70 | 117 | 4.0 | 6.0 | 0.00 | 0.00 | 0.00 | 29 | 1009.0 |
| 20260504185723 | 71 | 165 | 5.0 | 6.0 | 0.00 | 0.00 | 0.00 | 29 | 1009.0 |
| 20260504185221 | 71 | 138 | 4.0 | 8.0 | 0.00 | 0.00 | 0.00 | 30 | 1009.0 |
| 20260504184720 | 71 | 134 | 2.0 | 3.0 | 0.00 | 0.00 | 0.00 | 29 | 1009.0 |
| 20260504184222 | 71 | 128 | 6.0 | 9.0 | 0.00 | 0.00 | 0.00 | 29 | 1009.0 |
| 20260504183721 | 71 | 162 | 6.0 | 9.0 | 0.00 | 0.00 | 0.00 | 29 | 1008.0 |
| 20260504183221 | 71 | 132 | 6.0 | 8.0 | 0.00 | 0.00 | 0.00 | 29 | 1009.0 |
| 20260504182720 | 70 | 182 | 5.0 | 9.0 | 0.00 | 0.00 | 0.00 | 30 | 1009.0 |
| 20260504182222 | 70 | 146 | 7.0 | 9.0 | 0.00 | 0.00 | 0.00 | 30 | 1009.0 |
| 20260504181720 | 71 | 155 | 6.0 | 10.0 | 0.00 | 0.00 | 0.00 | 30 | 1009.0 |
| 20260504181222 | 70 | 166 | 5.0 | 9.0 | 0.00 | 0.00 | 0.00 | 30 | 1009.0 |
| 20260504180721 | 70 | 157 | 5.0 | 8.0 | 0.00 | 0.00 | 0.00 | 31 | 1009.0 |
| 20260504180221 | 70 | 144 | 7.0 | 11.0 | 0.00 | 0.00 | 0.00 | 31 | 1009.0 |
| 20260504175235 | 69 | 149 | 5.0 | 8.0 | 0.00 | 0.00 | 0.00 | 32 | 1009.0 |
| 20260504174721 | 69 | 154 | 8.0 | 11.0 | 0.00 | 0.00 | 0.00 | 33 | 1009.0 |
| 20260504174221 | 69 | 152 | 7.0 | 10.0 | 0.00 | 0.00 | 0.00 | 32 | 1009.0 |
| 20260504173724 | 68 | 173 | 8.0 | 11.0 | 0.00 | 0.00 | 0.00 | 34 | 1009.0 |
| 20260504173221 | 69 | 154 | 8.0 | 10.0 | 0.00 | 0.00 | 0.00 | 33 | 1009.0 |
| 20260504172721 | 68 | 179 | 5.0 | 9.0 | 0.00 | 0.00 | 0.00 | 33 | 1009.0 |
| 20260504172220 | 68 | 161 | 9.0 | 13.0 | 0.00 | 0.00 | 0.00 | 33 | 1009.0 |
| 20260504171721 | 68 | 159 | 7.0 | 9.0 | 0.00 | 0.00 | 0.00 | 34 | 1009.0 |
| 20260504171221 | 68 | 129 | 4.0 | 7.0 | 0.00 | 0.00 | 0.00 | 34 | 1009.0 |
| 20260504170721 | 68 | 133 | 8.0 | 10.0 | 0.00 | 0.00 | 0.00 | 34 | 1009.0 |
| 20260504170221 | 68 | 144 | 7.0 | 10.0 | 0.00 | 0.00 | 0.00 | 33 | 1009.0 |
| 20260504160220 | 63 | 150 | 6.0 | 10.0 | 0.00 | 0.00 | 0.00 | 44 | 1010.0 |
| 20260504150721 | 62 | 162 | 6.0 | 9.0 | 0.00 | 0.00 | 0.00 | 46 | 1010.0 |
| 20260504150221 | 62 | 162 | 6.0 | 8.0 | 0.00 | 0.00 | 0.00 | 46 | 1010.0 |
| 20260504141226 | 61 | 156 | 5.0 | 8.0 | 0.00 | 0.00 | 0.00 | 50 | 1010.0 |
| 20260504140722 | 60 | 141 | 4.0 | 8.0 | 0.00 | 0.00 | 0.00 | 50 | 1010.0 |
| 20260504140222 | 60 | 160 | 7.0 | 9.0 | 0.00 | 0.00 | 0.00 | 49 | 1010.0 |
| 20260504130721 | 58 | 177 | 6.0 | 7.0 | 0.00 | 0.00 | 0.00 | 50 | 1010.0 |
| 20260504130222 | 58 | 190 | 8.0 | 9.0 | 0.00 | 0.00 | 0.00 | 51 | 1010.0 |
| 20260504120221 | 58 | 160 | 5.0 | 6.0 | 0.00 | 0.00 | 0.00 | 52 | 1011.0 |
| 20260504110721 | 60 | 156 | 6.0 | 8.0 | 0.00 | 0.00 | 0.00 | 44 | 1010.0 |
| 20260504110220 | 60 | 169 | 4.0 | 6.0 | 0.00 | 0.00 | 0.00 | 43 | 1010.0 |
| 20260504100220 | 60 | 158 | 6.0 | 8.0 | 0.00 | 0.00 | 0.00 | 40 | 1010.0 |